Weather History for Kaiser, MO

Change the Weather History Date:

Thursday, December 6, 2012

  Actual Average Record
Temperature  
Mean Temperature 45 °F -  
Max Temperature 57 °F 47 °F 71 °F (1998)
Min Temperature 33 °F 29 °F 8 °F (2002)
Degree Days  
Heating Degree Days 20    
Moisture  
Dew Point 35 °F    
Average Humidity 68    
Maximum Humidity 81    
Minimum Humidity 54    
Precipitation  
Precipitation 0.00 in - - ()
Sea Level Pressure  
Sea Level Pressure 29.98 in    
Wind  
Wind Speed 5 mph (SE)    
Max Wind Speed 9 mph    
Max Gust Speed -    
Visibility 10 miles    
Events      
Averages and records for this station are not official NWS values.
T = Trace of Precipitation, MM = Missing Value Source: NWS Daily Summary

Daily Weather History Graph

Daily Weather History Graph

Search for Another Location

Airport:

Trip Planner

Search our weather history database for the weather conditions in past years. The results will help you decide how hot, cold, wet, or windy it might be!

Date:

Astronomy

Dec. 06, 2012 Rise Set
Actual Time 7:12 AM CST 4:50 PM CST
Civil Twilight 6:43 AM CST 5:19 PM CST
Nautical Twilight 6:10 AM CST 5:52 PM CST
Astronomical Twilight 5:38 AM CST 6:24 PM CST
Moon No Moon Rise 12:10 PM CST (12/6)
Length of Visible Light 10h 36m
Length of Day
9h 37m
Waning Gibbous, 49% of the Moon is Illuminated
Dec 6
Waning Gibbous
Dec 13
New
Dec 19
First Quarter
Dec 28
Full
Jan 4
Last Quarter

Hourly Weather History & Observations

Time (CST) Temp. Windchill Dew Point Humidity Pressure Visibility Wind Dir Wind Speed Gust Speed Precip Events Conditions
12:15 AM 41.0 °F 38.0 °F 28.4 °F 61% 30.11 in 10.0 mi ESE 4.6 mph - N/A   Clear
12:35 AM 39.2 °F 35.9 °F 28.4 °F 65% 30.10 in 10.0 mi SE 4.6 mph - N/A   Clear
12:55 AM 39.2 °F 35.9 °F 28.4 °F 65% 30.10 in 10.0 mi SE 4.6 mph - N/A   Clear
1:15 AM 41.0 °F 39.0 °F 28.4 °F 61% 30.10 in 10.0 mi SE 3.5 mph - N/A   Clear
1:35 AM 37.4 °F - 26.6 °F 65% 30.10 in 10.0 mi Calm Calm - N/A   Clear
1:55 AM 35.6 °F - 26.6 °F 70% 30.10 in 10.0 mi Calm Calm - N/A   Clear
2:15 AM 35.6 °F - 28.4 °F 75% 30.09 in 10.0 mi Calm Calm - N/A   Clear
2:35 AM 35.6 °F 31.7 °F 28.4 °F 75% 30.09 in 10.0 mi ESE 4.6 mph - N/A   Clear
2:55 AM 33.8 °F 28.6 °F 26.6 °F 75% 30.08 in 10.0 mi ESE 5.8 mph - N/A   Clear
3:15 AM 35.6 °F 32.8 °F 28.4 °F 75% 30.07 in 10.0 mi ESE 3.5 mph - N/A   Clear
3:35 AM 37.4 °F 32.8 °F 28.4 °F 70% 30.06 in 10.0 mi ESE 5.8 mph - N/A   Clear
3:55 AM 37.4 °F 33.8 °F 28.4 °F 70% 30.05 in 10.0 mi SE 4.6 mph - N/A   Clear
4:15 AM 37.4 °F 32.8 °F 28.4 °F 70% 30.05 in 10.0 mi SE 5.8 mph - N/A   Clear
4:35 AM 37.4 °F 32.8 °F 28.4 °F 70% 30.05 in 10.0 mi SSE 5.8 mph - N/A   Clear
4:55 AM 37.4 °F 33.8 °F 28.4 °F 70% 30.05 in 10.0 mi South 4.6 mph - N/A   Clear
5:15 AM 37.4 °F 32.8 °F 30.2 °F 75% 30.04 in 10.0 mi SSE 5.8 mph - N/A   Clear
5:35 AM 37.4 °F 34.9 °F 28.4 °F 70% 30.04 in 10.0 mi SSE 3.5 mph - N/A   Clear
6:15 AM 37.4 °F 33.8 °F 28.4 °F 70% 30.05 in 10.0 mi South 4.6 mph - N/A   Clear
6:35 AM 37.4 °F 33.8 °F 28.4 °F 70% 30.04 in 10.0 mi South 4.6 mph - N/A   Clear
6:55 AM 35.6 °F 31.7 °F 28.4 °F 75% 30.03 in 10.0 mi SE 4.6 mph - N/A   Clear
7:15 AM 37.4 °F 33.8 °F 30.2 °F 75% 30.03 in 10.0 mi SE 4.6 mph - N/A   Clear
7:35 AM 37.4 °F 32.8 °F 30.2 °F 75% 30.03 in 10.0 mi SSE 5.8 mph - N/A   Clear
7:55 AM 37.4 °F 33.8 °F 30.2 °F 75% 30.04 in 10.0 mi SSE 4.6 mph - N/A   Clear
8:15 AM 39.2 °F 35.0 °F 30.2 °F 70% 30.03 in 10.0 mi SSE 5.8 mph - N/A   Clear
8:35 AM 39.2 °F 34.2 °F 32.0 °F 75% 30.03 in 10.0 mi SSE 6.9 mph - N/A   Clear
8:55 AM 42.8 °F 39.3 °F 32.0 °F 66% 30.04 in 10.0 mi South 5.8 mph - N/A   Clear
9:15 AM 42.8 °F 38.0 °F 33.8 °F 70% 30.04 in 10.0 mi SSE 8.1 mph - N/A   Clear
9:35 AM 44.6 °F 39.7 °F 33.8 °F 66% 30.04 in 10.0 mi South 9.2 mph - N/A   Clear
9:55 AM 44.6 °F 41.4 °F 33.8 °F 66% 30.03 in 10.0 mi SSE 5.8 mph - N/A   Clear
10:15 AM 46.4 °F 42.9 °F 33.8 °F 62% 30.03 in 10.0 mi South 6.9 mph - N/A   Clear
10:35 AM 46.4 °F 42.9 °F 35.6 °F 66% 30.02 in 10.0 mi South 6.9 mph - N/A   Clear
10:55 AM 48.2 °F - 35.6 °F 62% 30.02 in 10.0 mi South 6.9 mph - N/A   Clear
11:15 AM 51.8 °F - 37.4 °F 58% 30.01 in 10.0 mi South 6.9 mph - N/A   Clear
11:35 AM 53.6 °F - 39.2 °F 58% 29.99 in 10.0 mi South 5.8 mph - N/A   Clear
11:55 AM 53.6 °F - 39.2 °F 58% 29.98 in 10.0 mi South 5.8 mph - N/A   Clear
12:15 PM 53.6 °F - 39.2 °F 58% 29.97 in 10.0 mi South 4.6 mph - N/A   Clear
12:35 PM 55.4 °F - 39.2 °F 54% 29.96 in 10.0 mi SSE 4.6 mph - N/A   Clear
12:55 PM 55.4 °F - 39.2 °F 54% 29.95 in 10.0 mi SSE 4.6 mph - N/A   Clear
1:15 PM 55.4 °F - 39.2 °F 54% 29.94 in 10.0 mi SSE 4.6 mph - N/A   Clear
1:35 PM 55.4 °F - 39.2 °F 54% 29.94 in 10.0 mi South 3.5 mph - N/A   Clear
1:55 PM 55.4 °F - 41.0 °F 58% 29.93 in 10.0 mi East 4.6 mph - N/A   Clear
2:15 PM 57.2 °F - 41.0 °F 55% 29.92 in 10.0 mi ESE 6.9 mph - N/A   Clear
2:35 PM 57.2 °F - 41.0 °F 55% 29.91 in 10.0 mi SE 5.8 mph - N/A   Clear
2:55 PM 57.2 °F - 42.8 °F 59% 29.92 in 10.0 mi SE 5.8 mph - N/A   Clear
3:15 PM 57.2 °F - 41.0 °F 55% 29.91 in 10.0 mi SSE 4.6 mph - N/A   Clear
3:35 PM 57.2 °F - 41.0 °F 55% 29.90 in 10.0 mi SSE 6.9 mph - N/A   Clear
3:55 PM 55.4 °F - 41.0 °F 58% 29.90 in 10.0 mi SSE 4.6 mph - N/A   Clear
4:15 PM 55.4 °F - 41.0 °F 58% 29.90 in 10.0 mi ESE 4.6 mph - N/A   Clear
4:35 PM 55.4 °F - 41.0 °F 58% 29.90 in 10.0 mi SE 3.5 mph - N/A   Clear
4:55 PM 51.8 °F - 39.2 °F 62% 29.91 in 10.0 mi Calm Calm - N/A   Clear
5:15 PM 51.8 °F - 39.2 °F 62% 29.90 in 10.0 mi Calm Calm - N/A   Clear
5:35 PM 51.8 °F - 39.2 °F 62% 29.90 in 10.0 mi Calm Calm - N/A   Clear
5:55 PM 48.2 °F - 39.2 °F 71% 29.91 in 10.0 mi ENE 3.5 mph - N/A   Clear
6:15 PM 48.2 °F - 39.2 °F 71% 29.91 in 10.0 mi NE 5.8 mph - N/A   Clear
6:35 PM 48.2 °F - 41.0 °F 76% 29.92 in 10.0 mi NE 5.8 mph - N/A   Clear
6:55 PM 50.0 °F - 39.2 °F 66% 29.92 in 10.0 mi NE 5.8 mph - N/A   Clear
7:15 PM 48.2 °F - 39.2 °F 71% 29.92 in 10.0 mi ENE 6.9 mph - N/A   Clear
7:35 PM 48.2 °F - 39.2 °F 71% 29.92 in 10.0 mi ENE 5.8 mph - N/A   Clear
7:55 PM 46.4 °F 44.3 °F 39.2 °F 76% 29.91 in 10.0 mi ENE 4.6 mph - N/A   Clear
8:35 PM 46.4 °F 44.3 °F 39.2 °F 76% 29.91 in 10.0 mi ENE 4.6 mph - N/A   Clear
8:55 PM 46.4 °F 43.5 °F 39.2 °F 76% 29.91 in 10.0 mi NE 5.8 mph - N/A   Clear
9:15 PM 46.4 °F 42.9 °F 39.2 °F 76% 29.91 in 10.0 mi NE 6.9 mph - N/A   Clear
9:35 PM 46.4 °F 42.9 °F 39.2 °F 76% 29.91 in 10.0 mi NE 6.9 mph - N/A   Clear
9:55 PM 46.4 °F 44.3 °F 39.2 °F 76% 29.92 in 10.0 mi ENE 4.6 mph - N/A   Clear
10:15 PM 46.4 °F 45.2 °F 39.2 °F 76% 29.92 in 10.0 mi East 3.5 mph - N/A   Clear
10:35 PM 44.6 °F 43.1 °F 39.2 °F 81% 29.92 in 10.0 mi East 3.5 mph - N/A   Clear
10:55 PM 44.6 °F 42.2 °F 39.2 °F 81% 29.92 in 10.0 mi East 4.6 mph - N/A   Clear
11:15 PM 44.6 °F 42.2 °F 39.2 °F 81% 29.91 in 10.0 mi East 4.6 mph - N/A   Clear
11:35 PM 46.4 °F 44.3 °F 41.0 °F 81% 29.90 in 10.0 mi ESE 4.6 mph - N/A   Clear
11:55 PM 46.4 °F 43.5 °F 41.0 °F 81% 29.90 in 10.0 mi ESE 5.8 mph - N/A   Clear